STARLINK-33908, 63700

Orbit data source: Space-Track

STARLINK-33908, 63700 is a payload satellite owned by SpaceX/Seattle (US) in LEO that was launched on Mon, 28 Apr 2025 UTC via an FALCON 9 launch vehicle from the Air Force Western Test Range (AFWTR). Payload-class satellites include a variety of spacecraft equipped with specific instruments for various scientific and technological missions. These include communications satellites like Starlink; space stations such as the ISS; scientific satellites like the Hubble; Earth observation satellites from companies like Planet Labs, Umbra, and HawkEye 360; GPS; miniature CubeSats for education and research; and military/defense satellites.

Loading next visibility...
Identifier
63700, 2025-087D
Orbit
LEO
Country
Flag of USUS
Related business
Manufacturer
SpaceX/Seattle
Mission
Operational Commercial Communications
Bus & Motor
STARLINK V2MO, Unknown motor
Mass
575 kg wet, ~530 kg dry
Launch date (UTC)
2025-04-28 (8 months ago)
Launch vehicle
FALCON 9
Launch site
Air Force Western Test Range (AFWTR)
Object type
Payload
Rocket body
Debris
Shape & HBR
Box + 2 Pan, 17.7 m
Radar Cross Section
36.964 m², Large (>1 m²)

Expand to show TLE details & history
Last TLE update: 8 hours ago

TLE from 8 hours ago
0 STARLINK-33908
1 63700U 25087D   25346.97213417  .00055846  00000-0  18821-2 0  9992
2 63700  53.1600 262.2910 0000744  96.3108 263.7978 15.30224054 35924
Epoch: 2025-12-12T23:19Z
TLE epoch observation values (Epoch: 2025-12-12T23:19:52.392Z)
Latitude
0.00003°
Longitude
-169.58337°
Altitude
476.098 km
Speed
7.629 km/s
True Right ascension
17h 29m 09s
True Declination
0° 00' 00"
Sunlit
Object was in daylight at epoch
Visualization orbit readout
Latitude
Unknown
Longitude
Unknown
Altitude
Unknown
Speed
Unknown
Apparent Right ascension
Unknown
Apparent Declination
Unknown
Sunlit
N/A
Visualization observer readout
Local Sidereal Time
05:23:36
Azimuth
Unknown
Elevation
Unknown
Doppler factor
Unknown
Orbital elements
Apogee altitude
475.91 km
Perigee altitude
474.89 km
Semi-major axis
6,853.537 km
Eccentricity
0.00007
Inclination
53.16°
RAAN
262.291°
Arg. of periapsis
96.3108°
True anomaly
263.78932°
Mean anomaly
263.7978°
Eccentric anomaly
263.79356°
Mean motion
3.82535 °/min
Orbital period
94.11 mins
BSTAR
0.0018821
Loading maneuver chart data...
Computing Atmospheric mass density...
Loading historical data...
Loading historical data...
Loading historical data...
Loading historical data...
Loading historical data...
Loading historical data...
Loading historical data...

Documentation

Showing up to 5 results
|